�������r�C�����j�^�v���󋵏��
Date,Time,5�C6���@���p�r�C��,����,����(m/s)
2022/03/07,00:00,4.0,���k��,4.4
2022/03/07,00:10,4.0,��,4.5
2022/03/07,00:20,4.1,���k��,4.6
2022/03/07,00:30,4.0,���k��,5.3
2022/03/07,00:40,4.1,�k��,6.8
2022/03/07,00:50,4.0,���k��,7.4
2022/03/07,01:00,4.0,���k��,7.5
2022/03/07,01:10,4.2,���k��,9.0
2022/03/07,01:20,4.1,���k��,9.8
2022/03/07,01:30,4.2,���k��,11.3
2022/03/07,01:40,4.0,���k��,8.9
2022/03/07,01:50,4.1,���k��,9.1
2022/03/07,02:00,4.1,���k��,9.7
2022/03/07,02:10,4.2,��,9.4
2022/03/07,02:20,4.2,��,9.0
2022/03/07,02:30,4.0,��,9.3
2022/03/07,02:40,4.0,���k��,7.6
2022/03/07,02:50,4.1,��,9.4
2022/03/07,03:00,4.1,��,8.9
2022/03/07,03:10,4.0,��,10.8
2022/03/07,03:20,4.1,��,6.7
2022/03/07,03:30,4.1,���k��,5.3
2022/03/07,03:40,4.0,���k��,6.1
2022/03/07,03:50,4.1,���k��,7.1
2022/03/07,04:00,4.0,�k��,4.6
2022/03/07,04:10,3.9,���k��,3.9
2022/03/07,04:20,4.1,���k��,2.5
2022/03/07,04:30,3.9,�k��,5.7
2022/03/07,04:40,4.2,�k��,9.4
2022/03/07,04:50,3.9,�k��,9.4
2022/03/07,05:00,3.8,�k��,11.3
2022/03/07,05:10,4.0,�k��,9.4
2022/03/07,05:20,4.1,�k��,9.8
2022/03/07,05:30,4.1,�k�k��,10.6
2022/03/07,05:40,4.1,�k�k��,10.2
2022/03/07,05:50,4.1,�k�k��,7.0
2022/03/07,06:00,3.9,�k��,6.4
2022/03/07,06:10,3.9,�k�k��,6.8
2022/03/07,06:20,4.0,�k�k��,7.9
2022/03/07,06:30,3.9,�k��,7.1
2022/03/07,06:40,4.2,�k��,9.1
2022/03/07,06:50,4.2,�k��,9.7
2022/03/07,07:00,4.0,�k��,8.9
2022/03/07,07:10,4.1,�k��,10.2
2022/03/07,07:20,3.9,�k��,9.2
2022/03/07,07:30,4.0,�k��,8.4
2022/03/07,07:40,4.0,�k�k��,10.5
2022/03/07,07:50,3.9,�k�k��,10.2
2022/03/07,08:00,4.0,�k��,9.9
2022/03/07,08:10,4.1,�k��,11.9
2022/03/07,08:20,4.0,�k�k��,8.1
2022/03/07,08:30,4.0,�k�k��,8.3
2022/03/07,08:40,3.9,�k�k��,11.4
2022/03/07,08:50,3.9,�k��,11.4
2022/03/07,09:00,3.9,�k��,13.1
2022/03/07,09:10,4.1,�k��,12.7
2022/03/07,09:20,4.1,�k��,13.6
2022/03/07,09:30,4.1,�k��,10.8
2022/03/07,09:40,4.0,�k��,13.6
2022/03/07,09:50,4.1,�k��,11.3
2022/03/07,10:00,4.0,�k��,9.1
2022/03/07,10:10,4.0,�k��,12.1
2022/03/07,10:20,4.1,�k��,11.3
2022/03/07,10:30,4.1,���k��,11.6
2022/03/07,10:40,4.0,���k��,11.3
2022/03/07,10:50,4.0,���k��,9.2
2022/03/07,11:00,3.9,���k��,13.2
2022/03/07,11:10,4.2,���k��,10.0
2022/03/07,11:20,4.1,���k��,11.4
2022/03/07,11:30,4.0,�k��,8.9
2022/03/07,11:40,4.0,�k��,8.4
2022/03/07,11:50,4.2,�k��,9.6
2022/03/07,12:00,4.0,�k��,9.5
2022/03/07,12:10,3.8,�k��,9.0
2022/03/07,12:20,3.9,�k��,9.4
2022/03/07,12:30,4.0,�k��,11.0
2022/03/07,12:40,4.1,�k��,10.7
2022/03/07,12:50,3.9,�k�k��,9.7
2022/03/07,13:00,3.9,�k��,5.8
2022/03/07,13:10,4.0,�k�k��,7.8
2022/03/07,13:20,4.1,�k��,8.2
2022/03/07,13:30,4.0,�k�k��,10.0
2022/03/07,13:40,4.1,�k��,7.7
2022/03/07,13:50,4.0,�k�k��,7.9
2022/03/07,14:00,4.0,�k��,9.2
2022/03/07,14:10,4.2,�k��,7.7
2022/03/07,14:20,4.1,�k��,7.1
2022/03/07,14:30,3.9,�k��,7.9
2022/03/07,14:40,4.2,�k��,5.9
2022/03/07,14:50,4.1,�k��,6.8
2022/03/07,15:00,4.1,�k��,8.1
2022/03/07,15:10,4.2,�k��,5.8
2022/03/07,15:20,4.2,�k��,4.3
2022/03/07,15:30,4.0,��,4.5
2022/03/07,15:40,4.0,��,6.3
2022/03/07,15:50,4.1,���쐼,6.0
2022/03/07,16:00,3.9,���쐼,6.5
2022/03/07,16:10,4.1,��,5.2
2022/03/07,16:20,4.0,���쐼,3.5
2022/03/07,16:30,4.1,��,4.9
2022/03/07,16:40,3.9,��,4.5
2022/03/07,16:50,4.0,���쐼,4.5
2022/03/07,17:00,4.1,���쐼,4.7
2022/03/07,17:10,4.0,��,5.1
2022/03/07,17:20,4.1,���쐼,5.4
2022/03/07,17:30,3.9,��,4.0
2022/03/07,17:40,4.0,��,5.8
2022/03/07,17:50,4.1,��,6.6
2022/03/07,18:00,4.2,��,5.5
2022/03/07,18:10,4.0,���쐼,5.9
2022/03/07,18:20,4.0,��,6.0
2022/03/07,18:30,4.1,���k��,5.3
2022/03/07,18:40,4.0,�k��,6.4
2022/03/07,18:50,4.1,���k��,4.8
2022/03/07,19:00,4.0,���k��,4.6
2022/03/07,19:10,4.0,���k��,3.7
2022/03/07,19:20,4.1,���k��,5.6
2022/03/07,19:30,4.1,�k��,4.6
2022/03/07,19:40,4.1,�k��,4.2
2022/03/07,19:50,4.0,�k��,6.5
2022/03/07,20:00,4.1,�k��,5.9
2022/03/07,20:10,4.1,�k��,5.2
2022/03/07,20:20,3.9,�k��,5.3
2022/03/07,20:30,3.9,�k��,4.2
2022/03/07,20:40,4.0,�k�k��,4.1
2022/03/07,20:50,4.0,�k�k��,5.5
2022/03/07,21:00,4.2,�k�k��,6.2
2022/03/07,21:10,4.1,�k�k��,4.1
2022/03/07,21:20,4.0,�k,3.6
2022/03/07,21:30,4.1,�k,2.8
2022/03/07,21:40,4.0,�k,2.5
2022/03/07,21:50,4.1,�k,2.0
2022/03/07,22:00,4.0,�k,1.7
2022/03/07,22:10,4.0,�k,1.5
2022/03/07,22:20,4.1,�k�k��,1.7
2022/03/07,22:30,4.1,�k�k��,1.7
2022/03/07,22:40,4.1,�k��,0.6
2022/03/07,22:50,4.0,�k��,0.8
2022/03/07,23:00,4.1,-,CALM
2022/03/07,23:10,4.1,-,CALM
2022/03/07,23:20,4.1,�k,0.8
2022/03/07,23:30,3.9,�k�k��,0.8
2022/03/07,23:40,4.0,-,CALM
2022/03/07,23:50,4.1,���쓌,0.6
